Weather in Chicherino

Russia / Tambov Oblast     52°02′25″N   41°20′59″E
temp.,
°C
wind,
m/s
gust,
m/s
humid.,
%
clouds,
%
prec.,
mm/h
press.,
hPa
HPBL,
m
3 march, wed
wed300:000nw51095100 0.4 1009530
03:00−1nw5109394 0.4 1010394
06:00−2nnw6109595 0.1 1011619
09:00−2nnw7129497 0.3 1013740
12:00−3nnw7108675 0.1 1015790
15:00−3nw598762 0.1 1017780
18:00−5wnw4118861 0.0 1017240
21:00−6w5119330 0.0 1018207
4 march, thu
thu400:00−2wsw6129187 0.0 1015598
03:00−2w6119394 0.1 1014719
06:00−2wsw71391100 0.1 1012559
09:00−1wsw8159199 0.2 1011549
12:00+1wsw8158838 0.0 1009646
15:00+1wsw8168325 0.0 1007767
18:00+1sw7167869 0.0 1005528
21:00+1wsw7178462 0.0 1004626
5 march, fri
fri500:00+2sw7149399 0.0 1002510
03:00+2wsw7149899 0.2 1001488
06:00+1w61298100 0.5 1002537
09:000nw5997100 1.4 1004533
12:00−2nnw4691100 0.1 1007462
15:00−2nnw3490100 0.1 1010440
18:00−4n2292100 0.0 101147
21:00−4ne2290100 0.0 101244
6 march, sat
sat600:00−5nne2491100 0.0 1012134
03:00−5n3593100 0.0 1012167
06:00−8nnw369174 0.0 1013132
09:00−7nnw489287 0.0 1014307
12:00−6nnw478531 0.0 1016408
15:00−5nw468316 0.0 1016597
18:00−7wnw23880 0.0 101634
21:00−9nw34900 0.0 101862
7 march, sun
sun700:00−9nnw239556 0.0 1018110
03:00−10wsw229262 0.0 101921
06:00−10sw47950 0.0 1017135
09:00−7sw7138931 0.0 1015682
12:00−4sw91574100 0.0 1013966
15:00−2sw91769100 0.0 10091178
18:00−2sw81769100 0.0 10071017
21:00−2wsw81777100 0.0 1006867